Location: Pabrico
(37.5827°N, 122.0063°W)
Time: 06:33:23
(UTC+00:00)

KORONAS-FOTON - Visible Passes

Search period start: 16 July 2024 00:00
Search period end: 26 July 2024 00:00
Orbit: 474 x 497 km, 82.4° (Epoch: 15 July)

Date Brightness Start Highest point End Pass type
(mag) Time Alt. Az. Time Alt. Az. Time Alt. Az.
16 Jul 5.7 10:57:25 10° NNE 11:00:29 26° ENE 11:03:32 10° SE visible
17 Jul 6.4 10:33:34 10° NE 10:35:55 16° ENE 10:38:15 10° ESE visible
17 Jul 4.9 12:08:04 10° NW 12:10:58 23° W 12:13:42 11° SW visible
18 Jul 6.9 10:11:01 10° ENE 10:11:17 10° ENE 10:11:34 10° ENE visible
18 Jul 4.2 11:43:12 10° NNW 11:46:34 38° W 11:48:36 20° SSW visible
19 Jul 3.5 11:18:33 10° NNW 11:22:08 69° W 11:23:33 33° S visible
20 Jul 3.8 10:54:02 10° N 10:57:38 67° E 10:58:34 44° SSE visible
21 Jul 4.8 10:29:41 10° N 10:33:04 38° E 10:33:37 35° ESE visible
22 Jul 5.7 10:05:32 10° NNE 10:08:27 23° ENE 10:08:42 23° E visible
22 Jul 5.5 11:41:02 10° NW 11:43:03 16° W 11:43:03 16° W visible
23 Jul 6.4 09:41:44 10° NE 09:43:47 14° ENE 09:43:49 14° ENE visible
23 Jul 5.0 11:15:50 10° NNW 11:18:10 24° WNW 11:18:10 24° WNW visible
24 Jul 4.7 10:50:57 10° NNW 10:53:18 33° NW 10:53:18 33° NW visible
25 Jul 4.9 10:26:14 10° N 10:28:28 36° NNW 10:28:28 36° NNW visible
